TimeCDT,TemperatureF,Dew PointF,Humidity,Sea Level PressureIn,VisibilityMPH,Wind Direction,Wind SpeedMPH,Gust SpeedMPH,PrecipitationIn,Events,Conditions,WindDirDegrees,DateUTC
12:53 AM,73.9,71.1,91,29.84,6.0,South,3.5,-,N/A,,Clear,180,2013-09-02 05:53:00
1:53 AM,73.0,70.0,90,29.83,7.0,SW,3.5,-,N/A,,Clear,220,2013-09-02 06:53:00
2:53 AM,72.0,70.0,93,29.83,5.0,Calm,Calm,-,N/A,,Scattered Clouds,0,2013-09-02 07:53:00
3:53 AM,72.0,69.1,91,29.83,6.0,Calm,Calm,-,N/A,,Clear,0,2013-09-02 08:53:00
4:53 AM,72.0,69.1,91,29.83,7.0,Variable,3.5,-,N/A,,Clear,0,2013-09-02 09:53:00
5:53 AM,72.0,69.1,91,29.84,8.0,SSW,3.5,-,N/A,,Clear,200,2013-09-02 10:53:00
6:53 AM,72.0,69.1,91,29.87,6.0,Calm,Calm,-,0.01,,Clear,0,2013-09-02 11:53:00
7:53 AM,75.0,71.1,87,29.87,9.0,Calm,Calm,-,N/A,,Clear,0,2013-09-02 12:53:00
8:53 AM,79.0,73.0,82,29.87,8.0,WNW,4.6,-,N/A,,Clear,290,2013-09-02 13:53:00
9:53 AM,82.0,73.0,74,29.89,8.0,Variable,3.5,-,N/A,,Scattered Clouds,0,2013-09-02 14:53:00
10:11 AM,82.4,73.4,74,29.90,8.0,Variable,3.5,-,N/A,,Mostly Cloudy,0,2013-09-02 15:11:00
10:28 AM,82.4,73.4,74,29.90,8.0,Calm,Calm,-,N/A,,Scattered Clouds,0,2013-09-02 15:28:00
10:53 AM,86.0,73.0,65,29.89,9.0,Calm,Calm,-,N/A,,Clear,0,2013-09-02 15:53:00
11:53 AM,87.1,73.0,63,29.90,9.0,Calm,Calm,-,N/A,,Partly Cloudy,0,2013-09-02 16:53:00
12:10 PM,84.2,73.4,70,29.91,8.0,West,4.6,-,N/A,,Mostly Cloudy,280,2013-09-02 17:10:00
12:38 PM,82.4,73.4,74,29.90,6.0,NNW,5.8,-,N/A,,Haze,330,2013-09-02 17:38:00
12:53 PM,86.0,75.0,70,29.88,7.0,WNW,5.8,-,N/A,,Scattered Clouds,300,2013-09-02 17:53:00
1:20 PM,84.2,73.4,70,29.89,6.0,NW,8.1,-,N/A,,Haze,310,2013-09-02 18:20:00
1:53 PM,88.0,73.9,63,29.87,7.0,NW,6.9,-,N/A,,Mostly Cloudy,320,2013-09-02 18:53:00
2:05 PM,87.8,73.4,62,29.88,8.0,WNW,6.9,-,N/A,,Mostly Cloudy,300,2013-09-02 19:05:00
2:13 PM,89.6,71.6,55,29.87,9.0,WNW,5.8,-,N/A,,Scattered Clouds,300,2013-09-02 19:13:00
2:53 PM,88.0,70.0,55,29.86,10.0,NNW,5.8,-,N/A,,Overcast,330,2013-09-02 19:53:00
3:53 PM,89.1,69.1,52,29.85,10.0,NNW,10.4,-,N/A,,Partly Cloudy,340,2013-09-02 20:53:00
4:53 PM,88.0,66.9,49,29.83,10.0,NW,8.1,-,N/A,,Clear,320,2013-09-02 21:53:00
5:53 PM,87.1,68.0,53,29.85,10.0,NW,5.8,-,N/A,,Clear,320,2013-09-02 22:53:00
6:53 PM,84.0,66.0,55,29.86,10.0,NNW,3.5,-,N/A,,Clear,340,2013-09-02 23:53:00
7:53 PM,78.1,64.9,64,29.86,10.0,North,5.8,-,N/A,,Clear,350,2013-09-03 00:53:00
8:53 PM,75.9,64.9,69,29.88,10.0,NNW,4.6,-,N/A,,Clear,340,2013-09-03 01:53:00
9:53 PM,73.9,64.0,71,29.90,10.0,North,3.5,-,N/A,,Clear,350,2013-09-03 02:53:00
10:53 PM,72.0,63.0,73,29.91,10.0,Calm,Calm,-,N/A,,Clear,0,2013-09-03 03:53:00
11:53 PM,69.1,63.0,81,29.91,10.0,Calm,Calm,-,N/A,,Clear,0,2013-09-03 04:53:00